FENGYUN 1C DEB, 36152

Orbit data source: Space-Track

FENGYUN 1C DEB, 36152 is space debris in SSO originally from a launch on Mon, 10 May 1999 UTC launched from the Taiyaun Space Center, China (TSC). Fengyun 1C debris stems from the Chinese weather satellite Fengyun-1C, which was intentionally destroyed by a Chinese anti-satellite missile in 2007. This event dramatically increased the amount of space debris, with thousands of trackable fragments posing hazards to satellites and human spaceflight. The Fengyun 1C debris cloud has become a focal point in discussions about space sustainability and the need for international regulations to prevent the creation of new debris.

Loading next visibility...
Identifier
36152, 1999-025DRZ
Orbit
SSO
Country
Flag of CNCN / PRC
Related business
Manufacturer
Unknown
Mission
Spacecraft
Bus & Motor
Unknown
Mass
Unknown
Launch date (UTC)
1999-05-10 (27 years ago)
Launch vehicle
Unknown
Launch site
Taiyaun Space Center, China (TSC)
Object type
Payload
Rocket body
Debris
Shape & HBR
Unknown shape, 0.1 m
Radar Cross Section
Small (<0.1 m²)

Expand to show TLE details & history
Last TLE update: 1 week ago

TLE from 1 week ago
0 FENGYUN 1C DEB
1 36152U 99025DRZ 26114.39782820  .00001310  00000-0  65281-3 0  9995
2 36152  98.7417 157.1925 0055404 190.4259 169.5772 14.17844262660360
Epoch: 2026-04-24T09:32Z
TLE epoch observation values (Epoch: 2026-04-24T09:32:52.356Z)
Latitude
0.00001°
Longitude
161.54322°
Altitude
874.87 km
Speed
7.395 km/s
True Right ascension
10h 28m 46s
True Declination
0° 00' 00"
Sunlit
Object was in full shadow at epoch
Visualization orbit readout
Latitude
Unknown
Longitude
Unknown
Altitude
Unknown
Speed
Unknown
Apparent Right ascension
Unknown
Apparent Declination
Unknown
Sunlit
N/A
Visualization observer readout
Local Sidereal Time
02:47:07
Azimuth
Unknown
Elevation
Unknown
Doppler factor
Unknown
Orbital elements
Apogee altitude
869.75 km
Perigee altitude
789.881 km
Semi-major axis
7,207.952 km
Eccentricity
0.00554
Inclination
98.7417°
RAAN
157.1925°
Arg. of periapsis
190.4259°
True anomaly
169.69128°
Mean anomaly
169.5772°
Eccentric anomaly
169.63432°
Mean motion
3.54671 °/min
Orbital period
101.5 mins
BSTAR
0.00065281
Loading maneuver chart data...
Computing Atmospheric mass density...
Loading historical data...
Loading historical data...
Loading historical data...
Loading historical data...
Loading historical data...
Loading historical data...
Loading historical data...

Documentation

Showing up to 5 results
|